Flugplatz Offenburg

Für EDTO sind keine METAR/TAF Berichte vorhanden.
Es werden die Flugwettermeldungen vom Flugplatz Lahr in 11 km Entfernung angezeigt.

Bericht für EDTL

vom 07.12. um 17:50 UTC

Wind 7 kt aus 130°

Sichtweite 10 km oder mehr

gute Sicht, keine Wolken < 5000 ft, keine CB, keine Wettererscheinungen (CAVOK)

Temperatur 4.0°C

Taupunkt 0.0°C

Luftfeuchtigkeit 75%

Luftdruck 1006 hPa

EDTL 071750Z 13007KT CAVOK 04/M00 Q1006

Prognose für EDTL

vom 07.12. um 17:00 UTC

Zwischen 18:00 UTC und 00:00 UTC

Wind 4 kt aus 160°

Sichtweite 10 km oder mehr

keine signifikanten Wettererscheinungen

keine Wolken

TAF EDTL 071700Z 0718/0724 16004KT CAVOK
Impressum